• Em Portugal
  • Lista de países
  • Para 7 dias
  • Temperatura da água
  • Mapas de satélite
  • Mapa do tempo
  • Widgets de tempo
  • user-avatar
    Iniciar Sessão

    Previsão horária em Kemer

    Hoje, 18 Junho, Segunda-feira

    Tempo Temperatura Precipitação Vento Pressão Humidade
    00:00 +24°C° 0,7 mm 3 m/s 745 mmHg 85%
    01:00 +22°C° 0,7 mm 3 m/s 745 mmHg 85%
    02:00 +22°C° 0,7 mm 3 m/s 744 mmHg 86%
    03:00 +22°C° 0,4 mm 3 m/s 744 mmHg 85%
    04:00 +22°C° 0,4 mm 3 m/s 744 mmHg 85%
    05:00 +23°C° 0,4 mm 2 m/s 744 mmHg 85%
    06:00 +24°C° 0,1 mm 2 m/s 744 mmHg 79%
    07:00 +25°C° 0,1 mm 2 m/s 744 mmHg 73%
    08:00 +27°C° 0,1 mm 2 m/s 744 mmHg 67%
    09:00 +27°C° 0,5 mm 2 m/s 744 mmHg 64%
    10:00 +28°C° 0,5 mm 2 m/s 744 mmHg 62%
    11:00 +29°C° 0,5 mm 3 m/s 744 mmHg 59%
    12:00 +29°C° 0,8 mm 3 m/s 744 mmHg 59%
    13:00 +29°C° 0,8 mm 4 m/s 744 mmHg 59%
    14:00 +30°C° 0,8 mm 4 m/s 744 mmHg 59%
    15:00 +29°C° 1 mm 4 m/s 744 mmHg 60%
    16:00 +29°C° 1 mm 4 m/s 743 mmHg 62%
    17:00 +29°C° 1 mm 4 m/s 743 mmHg 64%
    18:00 +28°C° 0,5 mm 3 m/s 744 mmHg 69%
    19:00 +27°C° 0,5 mm 3 m/s 744 mmHg 74%
    20:00 +26°C° 0,5 mm 3 m/s 744 mmHg 79%
    21:00 +25°C° 0,1 mm 2 m/s 744 mmHg 80%
    22:00 +25°C° 0,1 mm 2 m/s 744 mmHg 80%
    23:00 +25°C° 0,1 mm 2 m/s 745 mmHg 80%

    Amanhã, 19 Junho, Terça-feira

    Tempo Temperatura Precipitação Vento Pressão Humidade
    00:00 +25°C° 0,1 mm 2 m/s 745 mmHg 81%
    01:00 +24°C° 0,1 mm 2 m/s 744 mmHg 82%
    02:00 +24°C° 0,1 mm 2 m/s 744 mmHg 83%
    03:00 +24°C° 0 mm 2 m/s 744 mmHg 83%
    04:00 +24°C° 0 mm 1 m/s 744 mmHg 84%
    05:00 +23°C° 0 mm 1 m/s 744 mmHg 84%
    06:00 +25°C° 0,1 mm 1 m/s 744 mmHg 78%
    07:00 +26°C° 0,1 mm 1 m/s 744 mmHg 72%
    08:00 +28°C° 0,1 mm 1 m/s 745 mmHg 66%
    09:00 +29°C° 0,2 mm 2 m/s 745 mmHg 64%
    10:00 +29°C° 0,2 mm 2 m/s 745 mmHg 61%
    11:00 +30°C° 0,2 mm 3 m/s 745 mmHg 59%
    12:00 +30°C° 0,5 mm 3 m/s 745 mmHg 59%
    13:00 +30°C° 0,5 mm 4 m/s 745 mmHg 60%
    14:00 +30°C° 0,5 mm 4 m/s 745 mmHg 61%
    15:00 +29°C° 0,6 mm 4 m/s 745 mmHg 62%
    16:00 +29°C° 0,6 mm 4 m/s 745 mmHg 63%
    17:00 +29°C° 0,6 mm 4 m/s 745 mmHg 65%
    18:00 +28°C° 0,2 mm 4 m/s 745 mmHg 71%
    19:00 +26°C° 0,2 mm 3 m/s 746 mmHg 78%
    20:00 +25°C° 0,2 mm 3 m/s 746 mmHg 85%
    21:00 +25°C° 0,5 mm 3 m/s 746 mmHg 85%
    22:00 +25°C° 0,5 mm 2 m/s 747 mmHg 85%
    23:00 +25°C° 0,5 mm 2 m/s 747 mmHg 85%

    Depois de amanhã, 20 Junho, Quarta-feira

    Tempo Temperatura Precipitação Vento Pressão Humidade
    00:00 +25°C° 0 mm 2 m/s 747 mmHg 86%
    01:00 +24°C° 0 mm 2 m/s 746 mmHg 87%
    02:00 +24°C° 0 mm 1 m/s 746 mmHg 87%
    03:00 +24°C° 0 mm 1 m/s 746 mmHg 87%
    04:00 +24°C° 0 mm 1 m/s 746 mmHg 87%
    05:00 +24°C° 0 mm 1 m/s 746 mmHg 86%
    06:00 +25°C° 0 mm 1 m/s 746 mmHg 81%
    07:00 +26°C° 0 mm 1 m/s 747 mmHg 75%
    08:00 +27°C° 0 mm 1 m/s 747 mmHg 69%
    09:00 +28°C° 0,1 mm 1 m/s 747 mmHg 67%
    10:00 +29°C° 0,1 mm 2 m/s 747 mmHg 64%
    11:00 +29°C° 0,1 mm 2 m/s 747 mmHg 62%
    12:00 +30°C° 0,6 mm 3 m/s 747 mmHg 63%
    13:00 +30°C° 0,6 mm 3 m/s 747 mmHg 63%
    14:00 +30°C° 0,6 mm 4 m/s 747 mmHg 64%
    15:00 +29°C° 0,9 mm 4 m/s 747 mmHg 66%
    16:00 +29°C° 0,9 mm 4 m/s 747 mmHg 68%
    17:00 +29°C° 0,9 mm 4 m/s 747 mmHg 70%
    18:00 +28°C° 0,5 mm 4 m/s 748 mmHg 73%
    19:00 +27°C° 0,5 mm 3 m/s 748 mmHg 77%
    20:00 +26°C° 0,5 mm 3 m/s 748 mmHg 81%
    21:00 +26°C° 0 mm 3 m/s 748 mmHg 82%
    22:00 +25°C° 0 mm 2 m/s 748 mmHg 83%
    23:00 +25°C° 0 mm 2 m/s 748 mmHg 83%

    21 Junho, Quinta-feira

    Tempo Temperatura Precipitação Vento Pressão Humidade
    00:00 +25°C° 0 mm 2 m/s 748 mmHg 83%
    01:00 +25°C° 0 mm 2 m/s 748 mmHg 83%
    02:00 +24°C° 0 mm 2 m/s 748 mmHg 83%
    03:00 +24°C° 0 mm 2 m/s 748 mmHg 83%
    04:00 +24°C° 0 mm 2 m/s 747 mmHg 83%
    05:00 +24°C° 0 mm 1 m/s 747 mmHg 82%
    06:00 +25°C° 0 mm 1 m/s 747 mmHg 77%
    07:00 +27°C° 0 mm 1 m/s 747 mmHg 71%
    08:00 +28°C° 0 mm 1 m/s 748 mmHg 65%
    09:00 +29°C° 0,2 mm 2 m/s 748 mmHg 63%
    10:00 +30°C° 0,2 mm 3 m/s 748 mmHg 61%
    11:00 +30°C° 0,2 mm 4 m/s 748 mmHg 59%
    12:00 +32°C° 0,7 mm 4 m/s 747 mmHg 59%
    13:00 +32°C° 0,7 mm 5 m/s 747 mmHg 60%
    14:00 +32°C° 0,7 mm 5 m/s 747 mmHg 60%
    15:00 +30°C° 0,5 mm 5 m/s 747 mmHg 61%
    16:00 +30°C° 0,5 mm 5 m/s 747 mmHg 62%
    17:00 +30°C° 0,5 mm 5 m/s 747 mmHg 63%
    18:00 +29°C° 0 mm 5 m/s 747 mmHg 69%
    19:00 +27°C° 0 mm 4 m/s 747 mmHg 75%
    20:00 +26°C° 0 mm 4 m/s 748 mmHg 82%
    21:00 +26°C° 0 mm 4 m/s 748 mmHg 83%
    22:00 +26°C° 0 mm 4 m/s 748 mmHg 84%
    23:00 +25°C° 0 mm 3 m/s 748 mmHg 85%

    22 Junho, Sexta-feira

    Tempo Temperatura Precipitação Vento Pressão Humidade
    00:00 +25°C° 0 mm 3 m/s 747 mmHg 86%
    01:00 +25°C° 0 mm 3 m/s 747 mmHg 86%
    02:00 +24°C° 0 mm 3 m/s 747 mmHg 87%
    03:00 +24°C° 0 mm 3 m/s 746 mmHg 87%
    04:00 +24°C° 0 mm 2 m/s 746 mmHg 87%
    05:00 +24°C° 0 mm 2 m/s 746 mmHg 87%
    06:00 +25°C° 0 mm 2 m/s 746 mmHg 81%
    07:00 +26°C° 0 mm 2 m/s 746 mmHg 75%
    08:00 +28°C° 0 mm 2 m/s 746 mmHg 69%
    09:00 +29°C° 0 mm 3 m/s 746 mmHg 64%
    10:00 +30°C° 0 mm 3 m/s 746 mmHg 60%
    11:00 +32°C° 0 mm 4 m/s 746 mmHg 55%
    12:00 +32°C° 0 mm 4 m/s 746 mmHg 54%
    13:00 +32°C° 0 mm 5 m/s 746 mmHg 52%
    14:00 +33°C° 0 mm 5 m/s 746 mmHg 51%
    15:00 +32°C° 0,1 mm 5 m/s 746 mmHg 53%
    16:00 +32°C° 0,1 mm 5 m/s 745 mmHg 56%
    17:00 +32°C° 0,1 mm 5 m/s 745 mmHg 58%
    18:00 +30°C° 0 mm 4 m/s 745 mmHg 64%
    19:00 +28°C° 0 mm 4 m/s 746 mmHg 69%
    20:00 +27°C° 0 mm 3 m/s 746 mmHg 75%
    21:00 +27°C° 0 mm 3 m/s 746 mmHg 76%
    22:00 +27°C° 0 mm 3 m/s 746 mmHg 76%
    23:00 +27°C° 0 mm 2 m/s 746 mmHg 77%

    23 Junho, Sábado

    Tempo Temperatura Precipitação Vento Pressão Humidade
    00:00 +26°C° 0 mm 2 m/s 746 mmHg 76%
    01:00 +26°C° 0 mm 2 m/s 746 mmHg 75%
    02:00 +26°C° 0 mm 2 m/s 745 mmHg 75%
    03:00 +26°C° 0 mm 2 m/s 745 mmHg 74%
    04:00 +26°C° 0 mm 2 m/s 745 mmHg 74%
    05:00 +26°C° 0 mm 2 m/s 745 mmHg 73%
    06:00 +27°C° 0 mm 2 m/s 745 mmHg 68%
    07:00 +28°C° 0 mm 2 m/s 745 mmHg 63%
    08:00 +30°C° 0 mm 2 m/s 745 mmHg 59%
    09:00 +31°C° 0 mm 3 m/s 745 mmHg 55%
    10:00 +33°C° 0 mm 3 m/s 745 mmHg 52%
    11:00 +34°C° 0 mm 4 m/s 745 mmHg 49%
    12:00 +34°C° 0 mm 4 m/s 745 mmHg 49%
    13:00 +34°C° 0 mm 5 m/s 745 mmHg 49%
    14:00 +34°C° 0 mm 5 m/s 745 mmHg 49%
    15:00 +34°C° 0 mm 5 m/s 745 mmHg 50%
    16:00 +34°C° 0 mm 5 m/s 745 mmHg 52%
    17:00 +34°C° 0 mm 5 m/s 745 mmHg 53%
    18:00 +32°C° 0 mm 4 m/s 745 mmHg 59%
    19:00 +30°C° 0 mm 4 m/s 745 mmHg 65%
    20:00 +29°C° 0 mm 3 m/s 745 mmHg 71%
    21:00 +28°C° 0 mm 3 m/s 745 mmHg 70%
    22:00 +28°C° 0 mm 3 m/s 745 mmHg 68%
    23:00 +28°C° 0 mm 3 m/s 746 mmHg 66%
    Mostrar mais